Weather in Tuzha

Russia / Kirov Oblast     57°36′13″N   47°56′09″E
temp.,
°C
wind,
m/s
gust,
m/s
humid.,
%
clouds,
%
prec.,
mm/h
press.,
hPa
HPBL,
m
15 may, sat
sat1500:00+16wsw338699 0.0 101738
03:00+16sw2285100 0.0 101812
06:00+18ese2483100 0.1 1016107
09:00+23se5863100 0.1 1016596
12:00+27s6846100 0.0 10151197
15:00+28ssw7134121 0.0 10141709
18:00+25ssw715480 0.0 1012671
21:00+19s411710 0.0 1013186
16 may, sun
sun1600:00+17ssw37815 0.0 1014113
03:00+16s348928 0.4 101459
06:00+18ssw4880100 0.0 1014238
09:00+23sw586671 0.0 1014701
12:00+25wsw68536 0.0 10141498
15:00+26sw6114810 0.0 10132240
18:00+23wsw49575 0.0 1013395
21:00+17wsw34765 0.1 101460
17 may, mon
mon1700:00+16sw34813 0.1 101563
03:00+14wsw37852 0.1 1016108
06:00+16wsw35760 0.0 1017179
09:00+21wsw46587 0.0 1018860
12:00+24wsw574925 0.0 10181555
15:00+25wsw46435 0.0 10171700
18:00+23w235721 0.0 101767
21:00+18nne11675 0.0 101811
18 may, tue
tue1800:00+16ene227538 0.0 101818
03:00+15ese3381100 0.0 101933
06:00+18ese357510 0.2 1019162
09:00+23ese455760 0.3 1019600
12:00+26se44505 0.0 10181112
15:00+28ese34410 0.0 10181740
18:00+25e48593 0.0 1017199
21:00+19ese5137530 0.2 1018263
19 may, wed
wed1900:00+17ese51375100 0.1 1018300
03:00+15se3886100 0.1 1018159
06:00+18se51178100 0.0 1018304
09:00+23se696199 0.0 1018640
12:00+26se785060 0.0 10171103
15:00+27se795046 0.0 10161726
18:00+24se6116061 0.0 1015576
21:00+20se616695 0.1 1014468